{"data":{"norad_id":68073,"epoch":"2026-09-19T12:53:54.032352Z","epoch_age_seconds":138565,"freshness":"FRESH","line1":"1 68073U 26042E   26262.53743093  .00018724  00000+0  56355-3 0  9998","line2":"2 68073  53.1604 354.0917 0001565  95.4064 264.7117 15.34419934 32049","mean_motion":15.34419934,"eccentricity":0.0001565,"inclination_deg":53.1604,"raan_deg":354.0917,"arg_perigee_deg":95.4064,"mean_anomaly_deg":264.7117,"bstar":0.00056355,"rev_number":3204,"period_min":93.846538883664,"perigee_km":461.57341057425,"apogee_km":463.714575025,"semimajor_km":6840.7809927996,"source":"CELESTRAK","updated_at":"2026-09-20T09:00:43.777696Z"}}